Location: ??
(35.4824°N, 139.4679°E)
Time: 21:13:06
(UTC+00:00)

COSMO-SKYMED 1 - Pass Details

Date: 29 October 2020
Orbit: 621 x 623 km, 97.9° (Epoch: 24 November)

Event Time Altitude Azimuth Distance (km) Brightness Sun altitude
Rises 19:48:47 0° 160° (SSE) 2,889 6.4 -15.4°
Reaches altitude 10° 19:50:58 10° 158° (SSE) 1,987 5.5 -15.0°
Maximum altitude 19:55:15 68° 76° (ENE) 672 2.9 -14.1°
Drops below altitude 10° 19:59:35 10° 353° (N) 1,999 5.0 -13.2°
Sets 20:01:47 0° 351° (N) 2,909 5.8 -12.8°
